Theta_e
309 309 309 309 309 309 309 309 309 309 310 310 311 311 312 312 313 313 315 315 314 312 312 312 313 315 316 315 314 316 308 311 314 314 316 316 315 317 316 316 315 316 316 316 320
309 309 309 309 309 309 309 309 309 309 310 310 311 311 312 313 314 315 316 315 314 313 312 314 314 316 317 317 316 314 309 314 313 314 314 315 316 316 316 314 313 314 315 316 319
310 310 310 310 310 310 310 309 309 309 309 310 311 311 312 313 318 317 312 312 312 312 313 315 314 316 317 317 317 314 311 312 315 317 316 316 316 316 314 313 314 314 315 314 317
310 310 310 310 310 310 310 310 309 309 309 310 310 311 312 313 318 315 311 311 311 312 313 315 317 317 315 316 317 313 315 314 316 316 317 316 316 316 315 315 316 315 314 313 314
310 310 310 310 310 310 310 310 310 309 309 309 310 311 312 314 316 318 317 312 311 312 314 316 317 317 315 315 316 314 315 316 316 316 316 316 316 315 315 315 316 315 314 313 313
310 310 310 310 310 310 310 310 310 309 309 309 309 310 311 313 315 318 318 317 311 312 313 314 316 316 316 315 314 316 315 316 316 316 315 315 315 315 315 314 314 314 314 313 312
308 308 309 309 309 309 309 309 310 310 309 309 309 310 311 311 315 317 317 317 316 312 312 312 315 316 316 315 315 315 315 313 314 315 315 315 313 312 315 314 313 312 312 312 312
314 309 309 308 308 308 309 310 310 310 309 308 309 310 310 312 314 314 316 316 316 316 314 315 314 316 316 316 314 314 313 315 314 313 314 314 314 313 314 313 312 312 311 311 311
324 319 315 310 308 309 310 310 310 309 308 308 309 310 311 312 314 315 317 317 316 315 314 315 314 315 315 311 312 311 314 313 314 312 312 312 313 313 312 312 311 311 311 311 310
321 323 323 317 315 311 308 307 308 308 308 308 310 312 311 314 315 316 317 316 315 315 314 314 314 311 309 311 314 313 314 313 315 313 311 311 311 310 311 310 311 312 311 311 310
318 323 324 323 322 317 315 309 309 312 309 309 311 310 314 313 315 316 316 315 315 314 312 313 311 312 313 310 312 312 313 315 313 313 312 311 311 311 311 309 309 310 311 311 311
318 320 322 322 322 322 318 311 311 315 314 313 310 312 316 315 315 316 316 315 314 313 312 312 312 312 311 311 312 313 314 313 312 312 310 311 311 309 309 309 310 312 311 312 311
318 317 318 320 321 322 322 318 313 315 314 313 313 313 312 315 315 315 316 314 313 312 312 313 314 313 313 313 313 312 313 313 314 313 311 311 311 310 310 311 312 313 314 313 312
320 318 318 319 320 319 321 321 314 312 312 313 315 314 314 315 315 315 315 315 312 313 312 312 313 314 313 313 313 314 312 314 314 315 315 311 316 312 311 309 308 311 312 312 311
319 319 319 318 319 319 320 321 316 315 324 315 315 315 314 314 312 313 314 314 311 312 313 313 313 314 314 314 313 314 312 313 313 312 312 312 312 314 311 311 311 312 312 311 312
315 318 319 320 319 317 317 319 316 319 323 317 315 314 314 315 311 310 313 312 312 312 312 312 312 312 313 312 312 310 312 311 310 311 314 313 313 314 312 313 312 313 315 314 312
309 313 317 317 318 319 319 318 317 318 317 316 315 313 315 315 311 310 310 311 313 314 314 312 312 312 311 312 311 312 313 315 315 313 316 311 312 316 313 313 311 312 315 314 312
307 308 310 317 318 319 318 312 315 316 316 314 314 314 316 314 312 310 309 311 309 311 311 314 314 311 310 312 313 312 312 314 314 316 315 311 314 315 310 312 314 315 313 311 309
306 306 307 308 316 318 318 316 318 315 315 317 317 317 315 315 313 310 309 310 310 309 314 313 313 310 310 310 313 311 313 313 316 300 309 314 313 312 309 308 309 312 308 308 308
304 304 306 307 308 316 318 317 313 313 315 316 320 318 317 316 314 312 310 310 312 310 311 313 315 310 310 311 311 311 310 313 311 313 315 315 314 317 314 310 309 306 306 307 306
302 303 304 305 308 311 316 312 316 314 315 317 319 318 315 317 316 313 314 313 311 311 311 313 315 312 310 311 312 311 312 312 312 310 313 313 318 310 313 311 310 307 310 307 307
302 304 305 308 311 310 312 312 313 315 314 316 317 317 315 315 317 313 314 314 312 311 312 311 315 310 311 309 308 311 313 312 315 314 313 313 319 308 310 310 311 311 311 309 307
301 302 307 310 310 310 309 311 313 315 315 316 317 316 316 318 319 316 313 313 313 312 312 313 316 315 315 314 309 311 311 314 313 308 316 315 319 305 307 310 310 310 309 307 306
301 302 304 310 310 308 310 310 312 313 313 315 316 316 316 318 318 321 318 316 313 313 313 314 314 315 320 317 312 311 310 311 314 316 316 316 318 313 309 310 309 309 309 308 307
301 302 305 305 306 310 309 310 310 312 313 313 315 316 317 319 318 319 318 315 311 312 313 316 318 315 315 312 311 310 313 312 314 315 318 318 316 317 314 310 312 314 310 307 306
300 300 302 305 307 305 310 310 310 310 312 314 314 314 316 318 317 315 317 317 317 311 313 313 317 314 316 313 313 315 313 309 312 314 315 316 316 313 314 315 312 313 313 309 309
299 300 302 301 302 306 307 307 308 309 310 311 313 314 314 315 315 315 313 313 314 316 313 313 314 313 319 315 314 316 316 316 315 311 312 314 314 313 310 309 311 313 312 311 313
Wind_Speed
7 6 5 4 3 2 2 1 1 1 2 2 3 3 3 3 3 2 2 2 2 3 4 5 5 6 7 6 5 3 5 1 1 5 4 8 4 4 6 11 6 7 11 11 24
8 6 5 4 3 2 1 1 2 2 2 3 4 4 5 4 3 1 1 3 3 4 6 5 7 6 4 3 3 4 4 5 1 3 4 7 6 9 6 7 4 9 14 24 23
8 7 6 5 4 3 2 2 2 3 4 4 4 4 5 4 2 1 2 1 4 5 6 6 6 4 4 3 2 2 4 4 2 2 6 6 4 7 11 3 11 17 21 23 23
10 9 8 6 5 5 4 4 4 4 4 5 4 4 4 3 3 3 4 4 4 7 9 8 5 2 3 2 2 3 2 3 4 3 3 5 5 5 10 7 12 13 19 22 23
12 11 10 9 8 7 6 6 5 5 5 5 5 4 2 1 3 3 1 3 7 10 9 8 6 3 3 2 2 2 2 2 3 4 5 5 6 5 9 10 11 16 19 19 21
14 14 13 11 10 9 8 8 7 7 6 6 5 4 3 3 4 4 4 4 5 7 5 4 4 4 3 2 3 3 1 4 5 7 5 6 5 4 9 16 17 19 20 20 20
13 14 14 14 13 11 10 10 9 8 7 7 6 5 7 8 5 6 5 5 6 7 6 4 3 2 3 2 1 1 3 5 10 8 5 6 6 10 13 20 21 22 21 21 21
8 10 13 14 14 13 12 11 11 10 9 8 6 7 6 8 10 14 11 9 8 8 7 5 4 3 2 3 2 1 3 2 3 10 4 8 9 6 17 25 26 24 23 24 24
8 8 10 12 12 14 13 12 11 11 10 8 7 5 5 9 14 12 10 9 10 9 8 5 5 2 3 5 4 5 3 5 8 11 4 5 8 3 11 27 26 26 27 26 25
10 10 11 10 10 10 10 10 11 10 11 8 10 4 11 7 9 11 12 10 8 11 7 5 3 3 3 3 5 6 5 5 5 5 3 4 12 5 12 23 29 28 29 29 31
15 11 12 11 8 7 8 7 7 6 15 10 6 4 3 11 10 10 14 13 9 7 5 4 3 7 14 9 4 4 4 5 4 4 6 9 11 14 20 23 25 28 32 34 35
21 15 15 14 11 9 6 5 6 3 8 16 20 17 7 13 9 14 19 12 8 5 6 4 8 16 5 5 6 5 5 9 6 5 7 8 12 10 8 17 32 39 39 40 39
25 20 19 16 15 15 11 8 9 6 4 9 23 27 25 21 13 22 26 12 5 7 10 9 7 9 9 6 6 8 8 5 8 3 3 5 9 8 10 27 30 41 46 43 47
23 22 18 17 18 18 16 8 10 3 2 6 8 12 26 16 9 22 29 14 6 12 7 8 7 6 6 7 9 8 7 5 5 1 6 4 9 6 6 11 10 33 39 46 44
13 18 25 26 18 14 7 8 14 6 4 4 5 5 14 15 10 15 32 16 9 9 7 9 7 8 6 7 10 7 3 5 2 3 1 3 5 5 5 8 12 26 34 38 44
20 16 14 25 31 25 21 12 18 4 11 4 4 5 7 6 3 6 13 6 4 6 4 3 3 7 8 3 7 7 5 5 4 2 5 10 9 6 7 13 7 21 29 34 38
16 18 19 18 27 27 23 17 4 5 1 6 5 6 5 6 4 4 7 11 10 6 11 3 5 3 6 5 3 5 7 2 3 1 8 4 7 18 5 7 11 16 27 29 33
15 17 19 24 21 19 28 3 7 7 6 2 4 4 7 6 3 5 6 8 7 2 3 10 6 13 7 11 8 9 9 6 7 4 5 1 8 6 10 16 23 27 26 19 29
18 18 23 21 23 21 21 5 9 7 6 10 2 4 4 4 5 5 6 6 9 11 11 7 7 1 1 4 13 6 9 6 1 2 2 6 8 9 8 9 13 29 15 17 28
19 19 28 20 17 26 11 14 8 6 6 5 12 9 9 7 7 8 9 6 6 15 7 5 3 1 1 4 4 6 7 2 1 2 6 5 7 11 5 10 13 8 12 20 25
20 8 10 15 18 14 10 5 7 10 4 4 16 10 7 9 12 6 6 2 10 9 23 5 4 0 3 6 12 3 5 3 5 5 5 3 8 7 10 10 8 11 24 23 27
9 4 9 23 11 7 13 7 7 4 21 4 3 14 9 9 10 9 13 8 17 14 13 10 1 4 8 2 2 2 6 7 5 6 6 2 17 4 7 6 12 12 13 20 26
8 13 10 27 8 12 4 9 14 6 9 7 8 7 6 6 5 12 7 8 13 10 13 9 5 1 4 2 1 6 8 18 3 3 15 6 13 2 1 2 3 8 9 13 20
7 3 15 25 19 11 16 14 12 19 12 5 5 10 5 7 7 3 4 3 17 14 17 13 6 9 12 4 6 9 9 13 18 9 8 18 29 12 5 3 4 6 7 13 18
15 7 8 6 15 17 9 6 18 11 14 24 9 14 14 11 15 11 12 3 3 8 6 10 8 14 21 2 4 4 16 19 22 32 12 31 17 32 14 9 18 21 15 17 22
10 7 14 6 10 19 16 18 16 15 10 9 18 17 19 8 17 11 17 11 10 2 6 6 6 10 20 13 8 6 8 12 20 23 20 28 27 4 8 13 11 23 27 27 29
30 26 12 8 8 6 15 24 16 14 12 21 19 17 13 21 28 27 3 8 5 15 13 9 6 5 13 8 8 6 32 22 16 12 20 21 35 19 7 9 22 31 33 32 33
Wind_Direction
171 177 178 179 177 183 187 199 217 291 327 333 337 339 335 340 322 299 214 180 199 159 151 140 124 106 86 74 72 86 63 96 114 158 213 173 132 138 147 140 142 169 162 168 177
183 186 190 198 200 210 228 255 284 311 322 327 331 335 335 337 327 224 254 253 198 182 165 149 124 112 89 66 58 79 98 185 213 177 198 177 176 151 155 135 109 141 153 161 179
203 201 201 208 222 239 256 283 294 300 311 315 323 328 333 338 120 33 71 132 161 167 169 136 121 113 90 67 44 113 157 191 165 134 173 169 162 168 153 232 198 185 169 175 186
222 222 221 225 234 247 261 277 290 297 301 305 313 320 326 333 169 101 74 79 131 148 148 137 126 93 87 84 78 92 195 180 176 170 164 167 172 186 191 210 217 209 186 184 191
238 237 239 241 243 252 260 271 280 287 292 299 304 311 304 254 205 197 126 99 127 141 146 131 105 90 110 132 103 131 226 207 212 200 196 193 214 218 225 199 188 184 189 193 197
245 246 246 246 249 255 261 267 273 282 287 291 293 295 286 250 201 204 196 188 174 175 169 152 122 109 118 136 155 176 229 268 251 231 215 201 227 210 222 197 191 196 201 206 210
254 252 254 254 250 252 260 268 273 275 279 283 288 283 267 254 209 199 191 191 203 215 213 199 179 179 160 110 132 152 308 311 240 219 220 203 284 235 228 202 201 204 210 213 217
268 259 250 251 257 254 255 262 267 270 271 274 276 281 257 238 225 226 221 225 215 214 218 222 215 175 172 129 46 38 54 331 287 158 226 155 263 265 223 199 206 210 213 218 222
285 279 266 255 248 255 259 259 262 264 261 261 265 251 250 233 230 223 214 213 208 206 206 199 169 148 131 87 9 1 239 216 311 192 144 175 260 270 213 202 210 214 220 223 223
267 276 274 261 261 252 250 259 265 263 254 250 238 259 228 214 210 209 204 196 185 182 162 163 141 82 45 112 222 207 219 242 233 211 171 215 261 260 202 207 220 223 226 225 226
269 249 267 266 261 265 256 250 261 260 228 211 230 201 182 190 184 184 182 169 157 165 149 162 122 202 210 200 175 174 194 243 250 219 183 227 240 255 229 226 235 233 232 231 233
252 243 253 264 259 265 251 213 216 241 296 247 236 227 217 187 173 184 178 170 170 174 126 70 225 227 157 196 224 242 248 260 293 241 186 255 251 245 216 226 231 236 236 235 232
241 247 245 249 268 247 243 235 239 258 268 266 235 232 219 213 206 191 184 186 167 152 190 179 211 178 170 181 189 233 220 231 232 340 257 319 270 234 243 237 239 243 247 245 237
254 235 237 234 242 238 239 230 223 222 302 256 216 224 212 199 231 213 196 177 186 191 176 236 222 159 170 200 174 231 211 201 239 141 255 143 284 233 246 242 226 243 240 240 236
249 246 236 228 237 210 243 211 197 163 260 203 174 177 177 175 143 192 193 200 175 179 147 230 184 187 189 197 173 232 177 202 233 202 348 214 281 263 215 249 247 248 242 240 240
249 244 222 228 232 238 249 231 166 156 229 190 138 161 136 179 137 122 176 178 156 155 263 227 178 170 194 121 169 147 85 48 51 48 261 218 208 200 202 224 245 251 251 247 238
257 247 235 212 223 225 234 174 178 219 6 196 174 175 173 153 142 159 166 181 175 160 222 139 211 200 166 111 71 132 120 288 317 324 247 293 225 252 285 243 223 250 259 243 233
254 252 245 233 231 220 199 118 207 204 210 75 118 89 181 151 186 156 133 190 251 160 126 189 271 172 196 193 168 195 164 164 216 213 270 358 242 253 230 263 258 259 264 256 225
261 254 254 240 224 220 202 209 200 192 200 147 110 119 233 202 151 144 204 217 202 183 187 176 259 155 182 151 163 198 212 170 350 92 360 226 279 275 253 274 260 251 260 226 222
271 269 255 244 227 217 222 210 208 227 170 171 192 196 192 186 174 182 176 198 210 198 195 212 276 33 143 105 33 159 164 96 15 221 255 269 270 235 230 239 252 265 231 228 221
274 268 255 234 211 208 243 251 242 221 240 175 206 212 210 170 191 208 207 240 204 203 194 195 167 222 120 207 170 147 190 179 141 160 195 295 261 215 213 218 237 254 256 238 224
236 240 216 181 181 210 228 189 186 233 225 200 208 211 202 180 190 208 212 221 197 142 180 199 197 180 201 226 270 328 208 162 162 215 235 159 263 176 171 195 208 260 257 244 235
224 235 215 195 204 216 226 229 219 192 204 200 224 202 191 205 205 213 208 217 176 164 170 175 184 6 307 350 31 215 210 207 106 74 224 162 257 62 313 263 275 252 258 238 231
229 244 214 216 224 212 219 227 221 214 223 224 264 203 176 224 210 226 224 244 189 201 202 167 167 197 223 183 146 193 203 205 208 230 213 232 260 223 201 186 253 257 253 241 242
209 234 215 198 232 223 210 222 223 224 214 205 228 225 211 227 220 225 219 239 227 201 197 157 234 223 244 167 149 214 211 205 208 227 204 251 242 261 242 229 250 266 254 225 227
219 207 224 259 232 222 222 226 226 218 186 203 222 218 217 232 210 228 227 207 206 101 169 160 239 206 257 226 217 253 252 218 227 239 236 255 261 132 183 239 250 250 248 231 235
227 237 238 236 244 232 220 232 234 234 239 231 217 223 224 230 238 249 207 276 275 195 197 166 190 183 246 201 206 229 236 231 231 229 223 235 246 252 259 243 248 250 248 243 243